Wind_Speed
24 25 24 24 25 25 23 21 19 19 18 18 17 16 15 15 15 15 14 14 13 13 13 12 11 11 11 10 10 10 9 9 9 8 8 7 7 7 7 6 6 7 7 7 7 7 7 7 7
25 25 26 26 26 25 23 21 20 20 20 19 18 18 17 16 16 16 15 15 14 14 14 13 13 12 12 12 12 11 11 10 10 10 10 9 9 9 8 8 8 8 8 8 8 8 8 8 8
26 26 27 27 27 26 23 22 21 21 22 21 20 19 19 18 17 17 17 16 16 16 15 15 15 14 13 13 13 13 13 12 12 12 11 11 11 10 10 10 9 9 10 10 9 9 9 10 10
27 27 28 28 28 26 24 23 23 23 23 23 22 20 20 20 19 19 19 18 17 17 17 17 16 15 15 15 15 15 14 14 13 13 13 12 12 12 12 11 11 11 11 11 11 11 11 11 11
28 28 28 29 29 27 25 24 25 25 25 24 24 22 22 21 21 20 20 19 19 19 18 17 17 16 16 16 16 16 15 15 15 14 14 14 14 14 14 13 13 13 13 13 13 13 13 13 13
28 29 29 29 29 28 27 26 27 26 26 26 25 25 24 24 23 22 21 21 20 20 19 18 18 18 18 17 17 17 17 17 16 16 16 16 16 16 16 16 15 15 15 15 15 15 15 15 15
28 29 30 29 29 28 28 28 28 28 28 28 27 27 26 26 25 24 24 23 22 22 21 20 20 19 19 18 18 18 18 18 18 18 18 17 17 18 18 18 17 17 17 17 17 17 17 17 17
28 29 29 30 29 29 29 29 30 30 30 30 29 28 28 28 27 26 26 25 25 24 22 22 21 20 20 20 20 19 19 19 19 20 19 19 19 19 19 19 19 19 19 19 19 19 19 19 19
28 29 29 29 30 30 30 31 31 31 32 32 30 29 29 29 29 28 27 27 26 25 25 24 22 22 22 22 21 21 21 21 21 21 21 21 21 21 21 21 21 21 21 20 20 21 21 22 22
29 30 29 29 30 31 32 32 32 32 32 32 32 31 31 30 30 29 28 28 28 27 26 26 25 24 24 23 23 23 23 23 23 23 23 23 22 22 22 23 23 23 23 23 22 23 23 23 24
29 30 30 30 31 32 32 33 33 33 32 32 32 32 31 31 30 30 30 30 29 29 28 28 27 27 26 25 25 25 25 25 25 25 25 25 24 24 24 24 24 25 25 25 25 25 25 25 25
29 30 30 31 31 31 32 33 34 34 34 33 33 32 32 32 31 31 31 31 31 30 30 29 29 28 28 28 27 27 27 27 26 26 26 26 26 26 26 26 26 26 28 28 28 28 28 28 28
31 31 31 31 31 32 33 34 34 35 35 35 34 34 34 34 33 32 32 32 32 32 31 30 30 30 29 29 29 29 29 29 28 28 28 28 29 29 29 29 29 29 29 30 30 30 30 31 31
32 32 32 31 32 33 33 34 35 35 35 35 35 35 34 35 34 33 33 33 33 32 32 31 31 31 31 30 30 30 30 30 30 30 30 30 31 31 30 31 31 31 31 31 32 32 32 33 33
33 33 32 32 33 33 34 34 34 35 36 35 35 35 35 35 35 35 34 34 33 33 33 32 32 32 32 32 31 30 30 30 31 31 32 31 32 32 33 33 33 33 33 33 34 34 34 34 34
33 34 33 33 33 34 35 34 34 36 37 36 36 35 36 35 36 36 36 36 35 35 34 34 33 33 33 33 32 32 31 31 31 32 33 34 34 34 35 35 34 34 35 35 35 35 36 36 36
34 34 34 34 34 34 35 35 35 36 37 37 37 37 37 36 37 37 37 38 37 37 36 36 35 34 34 34 33 33 33 33 33 33 34 34 35 36 36 37 37 37 37 37 37 37 37 37 38
33 34 35 35 35 36 36 36 36 36 37 38 38 38 38 37 38 38 39 39 38 38 37 37 36 35 35 36 36 35 35 35 35 34 35 36 36 36 37 38 39 39 38 39 38 38 39 39 39
33 33 34 36 36 37 36 36 36 37 37 37 38 38 39 39 39 38 39 39 39 38 38 38 38 38 38 38 38 38 37 37 37 37 37 37 37 37 38 38 38 39 39 39 40 40 40 41 41
33 33 33 35 36 37 37 37 37 37 37 37 37 38 39 39 39 39 39 39 40 39 39 39 40 40 40 40 40 40 39 39 39 38 38 38 38 38 39 39 39 39 40 39 40 41 41 42 42
33 33 34 34 35 36 37 37 36 36 37 37 37 37 37 38 39 39 39 39 39 39 39 39 39 40 40 40 40 40 40 41 40 40 40 40 40 40 40 41 41 41 42 42 41 42 42 43 44
34 34 34 35 35 36 36 37 35 35 35 35 36 36 36 37 38 38 39 39 40 40 40 39 40 40 40 41 41 41 41 41 42 42 42 42 42 42 42 42 43 43 43 44 44 44 44 45 46
33 34 34 35 36 37 37 38 35 35 34 35 35 36 37 37 38 39 40 40 40 41 41 41 41 41 40 41 41 41 42 42 43 44 45 44 43 44 44 44 44 44 44 45 46 46 47 48 48
33 34 34 35 35 37 35 37 36 35 34 34 35 36 37 37 38 39 39 40 41 42 42 42 42 42 42 41 42 42 42 43 43 44 45 46 45 44 45 45 45 45 45 46 46 47 49 49 49
33 34 35 35 36 36 35 37 36 34 34 34 35 37 38 38 38 39 39 40 41 42 43 43 43 42 43 43 43 43 43 44 44 45 45 46 46 46 46 46 47 47 47 47 48 49 49 49 49
32 33 34 35 36 35 35 36 35 33 33 34 35 36 37 38 38 39 40 41 41 42 43 43 43 43 43 43 44 45 45 44 45 45 45 45 46 46 47 48 48 49 50 50 51 50 49 49 49
32 32 33 34 36 35 35 35 35 33 34 34 35 36 37 37 38 38 38 39 41 42 42 42 43 43 44 44 44 45 45 45 45 45 45 45 46 47 47 48 48 48 49 50 50 50 50 49 49
31 31 32 33 35 36 36 35 33 33 33 34 35 36 36 37 37 38 38 39 40 42 42 43 43 43 44 45 46 46 46 46 46 46 46 46 46 47 47 47 48 47 47 47 48 49 49 49 48
30 30 32 33 34 35 35 33 32 32 33 33 33 34 34 35 36 38 39 39 40 41 42 43 44 44 45 46 46 47 46 46 46 45 46 46 46 46 46 46 46 46 46 46 46 47 48 49 49
29 29 30 32 33 34 35 34 32 31 30 31 32 32 33 34 36 37 38 39 40 40 41 42 43 44 44 45 45 46 46 46 45 45 45 45 46 46 46 46 46 46 46 46 47 47 48 49 49
Wind_Direction
240 240 239 239 240 241 241 240 240 240 241 240 240 241 240 240 240 243 245 246 247 246 245 245 245 242 240 237 234 232 232 231 232 235 238 238 240 242 246 252 254 256 258 259 260 263 268 271 271
241 239 238 239 240 242 242 242 241 240 241 242 242 241 240 240 241 243 245 246 246 247 247 248 248 245 242 238 236 236 236 237 239 241 243 245 246 247 247 253 256 257 260 264 266 266 270 274 274
241 241 240 240 241 242 244 243 242 241 241 242 243 243 242 242 242 243 244 246 246 247 248 249 248 246 246 244 240 240 241 243 245 246 246 247 248 249 249 253 255 259 262 265 268 269 271 276 278
240 242 241 241 242 242 243 242 241 241 240 241 242 244 244 243 243 244 244 245 246 246 248 250 248 245 247 248 244 242 243 247 249 250 250 249 250 250 251 254 256 258 262 264 267 270 273 276 275
240 242 242 242 242 241 241 242 242 243 242 241 242 243 244 243 244 245 245 245 245 246 248 249 247 246 247 247 245 244 244 247 249 252 253 253 253 253 253 255 257 258 261 263 266 269 273 275 275
242 243 244 245 243 242 241 242 243 243 243 242 242 242 244 244 244 245 246 247 247 247 247 247 248 247 246 246 245 245 246 247 249 251 253 253 254 256 256 257 257 259 261 263 265 267 272 275 275
245 246 245 245 244 243 242 243 244 243 243 242 242 243 244 245 245 246 246 247 246 247 247 247 246 247 248 247 246 246 249 250 252 252 253 255 256 257 258 259 260 260 262 265 266 268 270 272 272
247 247 246 244 244 243 243 244 244 244 243 243 243 243 244 245 246 246 246 246 246 247 248 247 245 246 248 248 248 250 251 253 255 255 255 256 257 257 258 260 261 262 263 265 267 270 271 271 270
249 249 248 245 246 244 244 244 244 245 244 244 245 244 245 246 246 247 246 247 247 248 248 247 247 248 249 250 249 250 252 254 256 257 257 258 259 259 259 260 262 263 265 267 268 270 271 271 271
250 250 248 248 247 245 245 245 245 245 246 246 246 247 246 246 246 246 246 246 246 247 247 247 248 250 250 251 250 251 253 255 256 257 258 259 260 261 261 261 263 264 266 268 270 270 271 271 272
251 250 248 247 248 247 246 245 245 245 246 247 246 246 246 245 245 245 246 245 245 246 247 248 249 250 251 252 252 252 254 256 258 257 258 260 260 261 262 263 265 265 266 268 270 271 271 272 273
253 251 249 249 249 247 246 246 246 246 247 247 245 244 244 243 244 245 246 246 245 246 247 248 249 250 251 252 254 255 255 257 259 260 260 260 262 263 264 265 265 267 267 269 270 271 270 271 272
253 252 251 250 250 248 246 245 246 247 247 246 245 245 245 244 244 245 246 246 246 247 247 248 250 251 252 253 255 256 257 257 259 261 262 263 263 265 266 266 266 267 268 269 270 271 271 271 271
253 252 251 251 252 251 248 246 246 246 246 245 245 245 246 245 245 245 246 246 246 246 247 248 250 251 252 254 255 256 257 258 259 261 263 264 264 265 266 267 266 267 269 270 270 271 272 272 272
254 253 252 252 253 252 251 248 247 246 246 245 244 245 245 245 245 245 245 245 245 245 246 247 249 251 252 254 255 256 258 259 261 261 262 264 265 265 266 267 268 269 270 270 271 271 271 271 272
254 254 253 253 253 253 252 250 249 247 246 245 245 245 245 246 246 246 246 244 244 245 246 248 249 250 251 253 254 256 258 260 262 263 263 264 265 266 267 267 269 270 270 270 270 271 271 271 271
254 254 254 254 253 253 253 252 249 248 247 246 246 246 247 246 246 246 246 245 246 246 246 248 250 251 251 253 254 256 259 261 263 264 265 265 266 267 268 268 269 269 270 271 271 271 271 271 271
254 254 253 253 253 253 253 253 251 249 247 247 246 247 247 246 246 246 247 246 246 246 246 247 250 251 252 253 255 258 260 262 264 265 265 266 267 267 268 270 270 270 271 271 271 271 271 271 272
255 254 253 252 252 253 253 252 250 250 249 248 247 247 246 246 246 247 246 246 246 246 247 248 249 251 253 254 256 258 261 263 264 264 265 266 267 268 269 270 271 271 272 272 272 272 271 272 272
254 255 255 254 254 254 253 252 250 250 250 248 247 247 246 246 246 246 247 246 247 247 248 249 250 252 254 255 256 258 261 263 264 265 266 267 267 269 270 271 272 272 271 272 272 272 272 273 273
254 254 255 256 255 254 254 252 250 249 250 249 247 246 245 245 245 246 246 246 247 248 248 249 250 252 254 256 257 258 260 262 264 265 267 268 268 269 270 271 272 272 272 273 273 273 273 274 274
254 254 254 255 256 255 255 255 250 249 249 248 247 246 246 246 246 246 247 247 248 248 248 250 252 254 255 256 257 259 261 262 263 265 266 268 269 270 270 271 272 273 273 273 273 274 274 275 275
255 254 254 255 256 255 254 255 252 251 248 248 248 247 247 246 246 247 248 248 249 248 248 250 253 255 256 258 259 261 263 264 265 266 266 267 269 269 270 271 271 272 273 273 273 274 275 275 276
254 253 254 254 255 254 253 255 253 252 251 249 249 248 248 248 248 248 249 249 249 249 250 252 254 255 257 258 260 262 263 265 266 267 267 267 268 269 270 270 271 271 272 272 273 274 275 275 276
253 252 253 254 254 255 255 256 255 254 253 251 251 250 250 250 250 250 250 249 250 251 252 253 255 256 257 259 261 263 264 266 267 267 267 268 268 268 268 269 270 271 272 272 273 274 274 275 275
253 252 253 255 257 257 256 256 256 256 254 253 253 253 253 252 252 252 252 251 251 252 253 253 254 256 258 260 262 264 265 266 267 267 268 268 269 269 270 271 271 272 272 272 274 275 275 274 274
251 252 253 255 256 258 258 258 257 257 257 256 255 255 254 254 253 253 254 253 252 252 254 255 256 257 259 261 263 265 266 266 267 268 269 269 269 270 271 272 272 273 272 273 274 275 276 275 274
253 253 253 255 258 260 260 260 261 260 260 259 258 257 256 255 255 254 254 254 254 255 256 257 258 260 261 262 263 264 265 266 267 268 268 268 269 270 271 271 271 272 273 273 274 275 276 276 275
254 253 253 255 257 260 262 261 262 262 262 261 260 259 257 256 255 256 256 256 256 257 258 259 260 262 263 264 265 265 265 266 267 268 267 268 269 270 271 271 271 271 272 273 274 276 276 276 275
254 255 255 256 258 260 263 263 262 264 264 263 262 261 259 258 257 257 257 257 257 258 260 261 262 263 264 265 266 266 266 266 266 267 267 268 269 270 270 270 271 272 273 274 275 276 277 277 276
Height
5806 5808 5811 5813 5815 5816 5817 5821 5823 5825 5826 5828 5829 5830 5832 5834 5836 5840 5839 5839 5840 5841 5842 5843 5845 5846 5847 5848 5849 5850 5851 5852 5853 5854 5855 5856 5856 5857 5858 5859 5859 5860 5860 5861 5861 5862 5862 5862 5863
5802 5804 5807 5808 5810 5812 5815 5817 5820 5821 5823 5824 5826 5828 5829 5831 5832 5834 5835 5836 5837 5839 5840 5841 5843 5844 5845 5846 5847 5848 5849 5850 5851 5852 5853 5854 5855 5856 5856 5857 5858 5858 5859 5860 5860 5860 5861 5861 5861
5797 5799 5802 5804 5805 5809 5812 5814 5816 5817 5819 5821 5823 5824 5826 5828 5829 5831 5832 5833 5835 5836 5838 5839 5840 5841 5843 5844 5845 5846 5847 5848 5849 5850 5851 5852 5853 5854 5855 5856 5856 5857 5857 5858 5858 5859 5859 5859 5860
5793 5795 5797 5799 5801 5805 5808 5810 5811 5813 5815 5817 5819 5821 5823 5825 5826 5828 5829 5830 5832 5833 5835 5836 5837 5839 5840 5841 5842 5843 5845 5846 5847 5848 5849 5850 5851 5852 5853 5853 5854 5855 5855 5856 5856 5857 5857 5857 5858
5788 5790 5792 5794 5797 5801 5804 5805 5807 5808 5811 5813 5815 5817 5819 5821 5822 5824 5826 5827 5829 5830 5831 5833 5834 5835 5837 5838 5839 5841 5842 5843 5844 5845 5846 5847 5848 5849 5850 5851 5852 5852 5853 5853 5854 5855 5855 5855 5856
5783 5785 5787 5790 5793 5797 5799 5800 5802 5804 5806 5808 5810 5812 5814 5817 5818 5820 5822 5823 5825 5827 5828 5830 5831 5832 5834 5835 5836 5837 5839 5840 5841 5842 5843 5844 5845 5846 5847 5848 5849 5849 5850 5850 5851 5852 5852 5852 5853
5778 5780 5782 5785 5788 5791 5794 5795 5797 5799 5801 5803 5805 5807 5809 5812 5814 5816 5817 5819 5821 5823 5824 5826 5827 5829 5830 5831 5833 5834 5835 5837 5838 5839 5840 5841 5841 5842 5843 5844 5845 5846 5847 5847 5848 5848 5849 5849 5849
5772 5775 5777 5779 5782 5786 5788 5789 5791 5793 5795 5797 5799 5802 5804 5807 5808 5810 5813 5815 5817 5818 5820 5822 5823 5825 5826 5828 5829 5830 5831 5832 5834 5835 5836 5837 5838 5838 5839 5840 5841 5842 5843 5843 5844 5844 5845 5845 5845
5767 5770 5771 5774 5777 5780 5781 5783 5785 5786 5789 5791 5793 5796 5799 5801 5803 5805 5807 5810 5812 5814 5816 5817 5819 5820 5822 5823 5825 5826 5827 5828 5829 5830 5832 5833 5833 5834 5835 5836 5837 5838 5838 5839 5839 5840 5840 5840 5840
5761 5763 5766 5769 5770 5772 5774 5776 5778 5780 5782 5784 5787 5789 5792 5794 5797 5799 5801 5804 5806 5808 5810 5812 5814 5816 5817 5819 5820 5821 5822 5824 5825 5826 5827 5828 5829 5829 5830 5831 5832 5833 5833 5834 5834 5835 5835 5835 5836
5755 5757 5760 5761 5763 5765 5767 5769 5771 5773 5775 5778 5780 5783 5785 5788 5790 5793 5795 5797 5800 5802 5805 5807 5809 5811 5812 5814 5815 5816 5817 5818 5819 5821 5822 5823 5823 5824 5825 5826 5827 5827 5828 5829 5829 5829 5830 5830 5830
5749 5751 5752 5754 5756 5757 5760 5762 5764 5766 5769 5771 5773 5776 5778 5781 5784 5786 5789 5791 5794 5796 5798 5801 5803 5805 5806 5808 5809 5811 5812 5813 5814 5815 5816 5817 5818 5819 5820 5821 5821 5822 5822 5823 5823 5824 5824 5824 5824
5743 5744 5745 5747 5748 5750 5752 5755 5757 5759 5761 5764 5766 5769 5772 5775 5777 5780 5782 5785 5787 5790 5792 5794 5796 5798 5800 5802 5803 5804 5806 5807 5808 5809 5810 5811 5812 5813 5814 5814 5815 5816 5816 5817 5817 5817 5818 5818 5818
5735 5737 5738 5740 5741 5743 5745 5748 5750 5753 5755 5757 5760 5762 5765 5768 5771 5773 5776 5778 5781 5783 5786 5788 5790 5792 5794 5795 5796 5798 5799 5800 5801 5802 5803 5804 5805 5806 5807 5808 5808 5809 5809 5810 5810 5810 5811 5811 5811
5727 5729 5731 5732 5734 5736 5738 5741 5744 5746 5748 5750 5753 5756 5758 5761 5764 5766 5768 5771 5774 5776 5779 5781 5783 5785 5787 5788 5790 5791 5792 5794 5795 5796 5797 5797 5798 5799 5800 5800 5801 5801 5802 5802 5802 5803 5803 5803 5803
5720 5721 5723 5726 5727 5729 5732 5734 5737 5738 5740 5743 5746 5748 5751 5754 5757 5759 5761 5764 5766 5769 5771 5774 5776 5778 5780 5781 5782 5784 5785 5786 5788 5789 5789 5790 5791 5791 5792 5792 5793 5793 5793 5794 5794 5795 5795 5795 5795
5712 5714 5716 5718 5720 5721 5723 5726 5729 5730 5732 5735 5738 5741 5744 5746 5749 5751 5754 5756 5759 5761 5764 5766 5768 5770 5772 5773 5775 5776 5777 5779 5780 5781 5781 5782 5783 5783 5784 5784 5784 5784 5785 5785 5786 5786 5786 5786 5786
5705 5706 5708 5710 5711 5713 5715 5718 5720 5722 5724 5727 5729 5732 5735 5738 5741 5743 5746 5748 5750 5753 5756 5758 5760 5762 5764 5765 5767 5768 5769 5770 5771 5772 5773 5773 5774 5775 5775 5775 5775 5775 5776 5776 5776 5776 5777 5777 5777
5696 5698 5700 5702 5702 5704 5706 5709 5711 5713 5715 5718 5721 5724 5727 5730 5732 5735 5737 5739 5742 5745 5747 5749 5751 5753 5755 5757 5759 5760 5761 5762 5763 5763 5763 5764 5765 5765 5766 5766 5766 5766 5766 5766 5767 5767 5767 5767 5767
5688 5690 5691 5693 5694 5695 5697 5700 5702 5704 5707 5710 5712 5715 5718 5721 5723 5726 5729 5731 5733 5736 5738 5740 5742 5744 5746 5748 5750 5751 5752 5753 5753 5754 5754 5755 5756 5756 5756 5757 5757 5757 5757 5757 5757 5756 5756 5756 5756
5680 5682 5683 5684 5685 5686 5688 5691 5694 5696 5698 5701 5704 5706 5709 5712 5715 5717 5719 5722 5724 5727 5729 5731 5734 5735 5737 5738 5740 5741 5742 5743 5744 5744 5745 5746 5746 5746 5746 5746 5746 5746 5746 5746 5746 5746 5746 5746 5745
5672 5674 5674 5675 5676 5677 5679 5680 5686 5688 5690 5693 5696 5698 5701 5703 5705 5708 5710 5713 5715 5718 5720 5722 5724 5726 5727 5729 5730 5731 5733 5733 5734 5735 5735 5736 5736 5736 5736 5736 5736 5736 5736 5735 5735 5735 5735 5734 5733
5664 5665 5666 5667 5667 5668 5670 5671 5677 5679 5682 5685 5688 5690 5692 5694 5697 5699 5701 5704 5706 5708 5711 5713 5714 5716 5718 5719 5720 5721 5723 5723 5724 5724 5725 5725 5725 5725 5725 5724 5724 5725 5724 5724 5724 5723 5723 5722 5721
5655 5657 5657 5658 5658 5659 5663 5663 5667 5672 5675 5678 5680 5682 5684 5686 5688 5690 5692 5694 5697 5699 5701 5703 5704 5706 5707 5709 5710 5711 5712 5713 5713 5713 5713 5714 5714 5713 5713 5713 5713 5713 5713 5712 5712 5711 5710 5710 5709
5647 5649 5649 5649 5649 5652 5656 5655 5660 5665 5667 5669 5671 5673 5675 5677 5679 5681 5683 5685 5687 5689 5691 5693 5694 5696 5697 5699 5700 5701 5702 5702 5702 5702 5702 5702 5702 5702 5702 5702 5701 5701 5701 5700 5700 5699 5698 5697 5696
5639 5641 5642 5642 5643 5645 5647 5648 5653 5656 5658 5660 5662 5664 5666 5668 5669 5671 5673 5675 5677 5679 5681 5683 5684 5685 5687 5688 5689 5690 5690 5691 5691 5691 5691 5691 5691 5691 5690 5690 5689 5689 5689 5688 5687 5687 5685 5685 5683
5632 5633 5635 5635 5635 5637 5638 5641 5645 5648 5650 5652 5653 5655 5656 5658 5660 5662 5663 5665 5667 5669 5670 5672 5674 5675 5676 5677 5678 5678 5679 5679 5679 5679 5679 5679 5679 5679 5678 5678 5678 5677 5676 5676 5675 5674 5673 5672 5671
5625 5626 5627 5627 5628 5628 5631 5634 5638 5640 5642 5643 5645 5646 5647 5649 5650 5652 5653 5655 5657 5658 5660 5662 5663 5664 5665 5666 5666 5667 5667 5667 5667 5668 5668 5668 5667 5667 5666 5666 5666 5665 5664 5664 5663 5662 5661 5660 5659
5618 5620 5619 5620 5621 5622 5623 5630 5631 5632 5633 5635 5636 5636 5638 5639 5641 5642 5643 5645 5647 5648 5650 5651 5652 5653 5654 5654 5655 5655 5655 5656 5656 5656 5656 5656 5655 5655 5654 5654 5654 5653 5653 5652 5651 5650 5649 5648 5646
5610 5612 5613 5614 5614 5615 5616 5622 5623 5624 5625 5626 5627 5628 5629 5630 5631 5632 5634 5635 5637 5638 5639 5641 5641 5642 5642 5643 5643 5643 5643 5644 5644 5644 5644 5644 5644 5643 5643 5642 5642 5642 5641 5640 5639 5638 5637 5635 5634